STARLINK-11650, 63312

Orbit data source: Space-Track

STARLINK-11650, 63312 is a payload satellite owned by SpaceX/Seattle (US) in LEO that was launched on Tue, 18 Mar 2025 UTC via an FALCON 9 launch vehicle from the Air Force Eastern Test Range (AFETR). Payload-class satellites include a variety of spacecraft equipped with specific instruments for various scientific and technological missions. These include communications satellites like Starlink; space stations such as the ISS; scientific satellites like the Hubble; Earth observation satellites from companies like Planet Labs, Umbra, and HawkEye 360; GPS; miniature CubeSats for education and research; and military/defense satellites.

Loading next visibility...
Identifier
63312, 2025-057F
Orbit
LEO
Country
Flag of USUS
Related business
Manufacturer
SpaceX/Seattle
Mission
Operational Commercial Communications
Bus & Motor
STARLINK V2MD, Unknown motor
Mass
960 kg wet, ~910 kg dry
Launch date (UTC)
2025-03-18 (1 year ago)
Launch vehicle
FALCON 9
Launch site
Air Force Eastern Test Range (AFETR)
Object type
Payload
Rocket body
Debris
Shape & HBR
Box + 2 Pan, 18.1 m
Radar Cross Section
36.964 m², Large (>1 m²)

Expand to show TLE details & history
Last TLE update: 8 hours ago

TLE from 8 hours ago
0 STARLINK-11650
1 63312U 25057F   26257.58484466  .00164826  00000-0  12612-2 0  9992
2 63312  43.0007 206.1371 0000538 280.0443  80.0364 15.70867735 86912
Epoch: 2026-09-14T14:02Z
TLE epoch observation values (Epoch: 2026-09-14T14:02:10.578Z)
Latitude
-0.00002°
Longitude
2.02997°
Altitude
356.124 km
Speed
7.697 km/s
True Right ascension
13h 44m 32s
True Declination
0° 00' 00"
Sunlit
Object was in daylight at epoch
Visualization orbit readout
Latitude
Unknown
Longitude
Unknown
Altitude
Unknown
Speed
Unknown
Apparent Right ascension
Unknown
Apparent Declination
Unknown
Sunlit
N/A
Visualization observer readout
Local Sidereal Time
14:20:33
Azimuth
Unknown
Elevation
Unknown
Doppler factor
Unknown
Orbital elements
Apogee altitude
358.76 km
Perigee altitude
358.035 km
Semi-major axis
6,736.534 km
Eccentricity
0.00005
Inclination
43.0007°
RAAN
206.1371°
Arg. of periapsis
280.0443°
True anomaly
80.04247°
Mean anomaly
80.0364°
Eccentric anomaly
80.03944°
Mean motion
3.92544 °/min
Orbital period
91.71 mins
BSTAR
0.0012612
Loading maneuver chart data...
Computing Atmospheric mass density...
Loading historical data...
Loading historical data...
Loading historical data...
Loading historical data...
Loading historical data...
Loading historical data...
Loading historical data...

Documentation

Showing up to 5 results
|